{"data":{"norad_id":23613,"epoch":"2026-09-19T21:05:52.599264Z","epoch_age_seconds":65021,"freshness":"FRESH","line1":"1 23613U 95035B   26262.87908101 -.00000238  00000+0  00000+0 0  9991","line2":"2 23613  13.2987 347.5288 0010789  98.6970 318.2815  1.00272064114206","mean_motion":1.00272064,"eccentricity":0.0010789,"inclination_deg":13.2987,"raan_deg":347.5288,"arg_perigee_deg":98.697,"mean_anomaly_deg":318.2815,"bstar":0,"rev_number":11420,"period_min":1436.0929081903,"perigee_km":35741.025302616,"apogee_km":35832.008192472,"semimajor_km":42164.653747544,"source":"CELESTRAK","updated_at":"2026-09-20T09:00:35.115603Z"}}